Temp
-14 -14 -14 -14 -14 -14 -14 -14 -14 -14 -14 -14 -14 -14 -14 -14 -14 -14 -14 -14 -14 -14 -14 -14 -13 -13 -13 -13 -14 -13 -14 -14 -14 -15 -15 -15 -15 -14
-15 -15 -14 -14 -14 -14 -14 -14 -14 -14 -14 -14 -14 -14 -14 -14 -14 -14 -14 -14 -14 -14 -14 -14 -14 -14 -14 -14 -14 -14 -13 -14 -15 -15 -14 -14 -15 -15
-15 -15 -15 -14 -14 -14 -14 -14 -14 -14 -14 -14 -14 -14 -14 -14 -14 -14 -14 -14 -14 -14 -14 -14 -14 -14 -14 -14 -14 -14 -14 -14 -14 -14 -14 -14 -14 -14
-15 -15 -15 -15 -14 -15 -14 -14 -14 -14 -14 -15 -14 -15 -15 -14 -14 -14 -14 -14 -14 -14 -14 -14 -14 -14 -14 -14 -14 -14 -14 -14 -14 -14 -14 -14 -14 -15
-15 -15 -16 -16 -15 -15 -14 -14 -14 -14 -14 -14 -14 -15 -15 -15 -14 -14 -15 -15 -15 -14 -14 -14 -14 -14 -14 -14 -14 -14 -14 -14 -14 -14 -14 -14 -15 -15
-16 -16 -16 -15 -15 -15 -14 -15 -15 -14 -14 -14 -14 -14 -15 -15 -15 -15 -15 -15 -15 -15 -15 -14 -14 -14 -14 -14 -14 -14 -14 -14 -14 -14 -14 -14 -15 -16
-18 -18 -17 -17 -16 -16 -15 -15 -15 -15 -15 -14 -14 -14 -15 -15 -15 -15 -15 -15 -15 -15 -15 -15 -14 -15 -14 -14 -14 -14 -14 -14 -14 -14 -14 -15 -15 -16
-18 -18 -18 -17 -17 -16 -15 -15 -15 -14 -14 -15 -14 -14 -15 -15 -15 -15 -15 -15 -14 -15 -15 -15 -15 -15 -14 -14 -14 -14 -14 -14 -14 -14 -15 -15 -15 -16
-17 -18 -17 -16 -17 -17 -17 -16 -15 -15 -14 -14 -14 -15 -15 -15 -15 -15 -15 -15 -15 -15 -15 -15 -15 -15 -15 -14 -14 -14 -14 -14 -14 -14 -15 -15 -16 -16
-19 -19 -17 -17 -18 -18 -17 -16 -16 -15 -15 -14 -15 -15 -15 -15 -15 -15 -15 -15 -15 -15 -15 -15 -15 -15 -15 -15 -14 -14 -14 -14 -14 -15 -15 -15 -16 -16
-19 -19 -19 -19 -18 -18 -17 -17 -17 -16 -15 -15 -14 -15 -15 -15 -15 -15 -15 -15 -15 -15 -15 -15 -15 -15 -15 -15 -15 -14 -14 -14 -14 -15 -15 -15 -16 -16
-18 -19 -18 -19 -19 -19 -18 -18 -17 -16 -16 -15 -14 -13 -15 -15 -15 -16 -15 -15 -15 -16 -16 -15 -15 -15 -14 -14 -15 -15 -15 -15 -15 -15 -16 -16 -16 -16
-18 -18 -18 -18 -18 -19 -18 -18 -17 -17 -17 -17 -15 -15 -15 -15 -15 -15 -15 -15 -15 -16 -16 -15 -15 -15 -15 -14 -15 -15 -15 -15 -15 -15 -15 -16 -16 -16
-17 -17 -17 -18 -17 -17 -17 -17 -18 -17 -17 -17 -17 -17 -16 -16 -16 -16 -16 -15 -15 -16 -15 -15 -15 -15 -15 -14 -15 -15 -15 -15 -15 -15 -15 -16 -17 -17
-18 -18 -17 -17 -17 -17 -17 -17 -17 -18 -18 -17 -17 -17 -16 -16 -16 -16 -16 -16 -15 -16 -16 -16 -16 -16 -15 -15 -15 -15 -15 -15 -15 -15 -15 -16 -16 -17
-18 -18 -18 -18 -17 -17 -17 -17 -17 -17 -17 -17 -18 -17 -16 -17 -17 -16 -16 -16 -16 -16 -16 -16 -16 -16 -16 -15 -15 -15 -15 -15 -15 -15 -15 -15 -15 -16
-18 -18 -18 -18 -17 -17 -17 -16 -17 -17 -16 -17 -17 -17 -16 -16 -16 -16 -16 -16 -16 -16 -16 -16 -16 -16 -16 -15 -15 -15 -15 -15 -15 -15 -15 -16 -16 -16
-17 -17 -17 -17 -17 -17 -17 -17 -16 -16 -16 -16 -17 -17 -17 -16 -17 -15 -16 -16 -16 -16 -16 -16 -16 -16 -16 -15 -15 -15 -15 -15 -15 -15 -16 -16 -17 -17
-17 -17 -17 -17 -17 -17 -17 -17 -17 -16 -16 -16 -16 -17 -17 -17 -16 -17 -17 -16 -16 -16 -16 -16 -16 -16 -16 -16 -15 -15 -15 -16 -16 -16 -16 -16 -17 -17
-20 -18 -17 -17 -17 -17 -17 -17 -17 -17 -16 -16 -16 -16 -17 -17 -17 -16 -16 -17 -17 -16 -16 -16 -16 -16 -16 -16 -16 -16 -16 -16 -16 -16 -16 -17 -17 -17
-21 -21 -21 -20 -20 -19 -18 -17 -17 -17 -16 -16 -16 -16 -16 -17 -16 -16 -16 -16 -16 -16 -16 -16 -16 -16 -16 -16 -16 -16 -17 -17 -17 -17 -17 -17 -18 -18
-21 -21 -21 -21 -21 -21 -21 -19 -19 -18 -16 -17 -16 -16 -16 -17 -17 -17 -17 -17 -17 -17 -16 -16 -16 -16 -17 -16 -16 -16 -17 -18 -18 -18 -18 -18 -18 -18
-20 -21 -21 -21 -21 -22 -22 -22 -20 -19 -18 -18 -17 -16 -16 -16 -17 -17 -17 -17 -17 -16 -16 -17 -16 -17 -17 -17 -17 -17 -18 -18 -18 -18 -18 -18 -18 -18
Height
5672 5675 5679 5685 5688 5692 5697 5700 5702 5704 5711 5712 5714 5715 5717 5719 5722 5722 5723 5725 5725 5726 5726 5728 5728 5729 5730 5732 5732 5733 5733 5733 5734 5733 5734 5735 5735 5736
5659 5663 5668 5674 5677 5679 5686 5691 5692 5696 5700 5703 5705 5707 5708 5711 5713 5715 5717 5717 5718 5719 5720 5720 5721 5722 5723 5724 5724 5724 5724 5724 5725 5725 5726 5726 5725 5725
5652 5654 5658 5663 5666 5670 5676 5681 5683 5687 5691 5694 5697 5700 5700 5702 5706 5707 5708 5710 5709 5710 5711 5711 5712 5713 5714 5716 5716 5716 5716 5716 5716 5715 5715 5716 5715 5715
5646 5646 5649 5652 5656 5661 5667 5671 5674 5679 5681 5686 5686 5691 5693 5694 5696 5699 5700 5702 5702 5702 5702 5702 5703 5704 5704 5706 5707 5708 5708 5708 5707 5707 5706 5706 5706 5705
5637 5637 5640 5644 5645 5651 5656 5660 5664 5669 5671 5675 5676 5682 5685 5686 5687 5689 5691 5692 5692 5693 5693 5693 5694 5694 5695 5696 5697 5698 5698 5698 5698 5697 5697 5696 5695 5695
5625 5626 5629 5633 5635 5641 5644 5649 5653 5657 5661 5664 5665 5672 5675 5677 5678 5680 5681 5681 5683 5684 5684 5683 5684 5684 5685 5684 5686 5686 5688 5688 5688 5688 5686 5686 5685 5684
5613 5616 5619 5621 5625 5629 5633 5638 5642 5645 5649 5653 5655 5661 5664 5667 5669 5669 5669 5672 5673 5674 5675 5674 5672 5673 5674 5675 5675 5675 5677 5677 5677 5677 5676 5675 5674 5673
5602 5602 5606 5609 5613 5617 5622 5626 5630 5631 5635 5639 5644 5650 5653 5655 5656 5660 5659 5661 5662 5665 5664 5664 5663 5662 5662 5662 5663 5664 5664 5665 5665 5665 5665 5664 5663 5662
5593 5592 5593 5596 5600 5605 5610 5612 5615 5619 5622 5627 5631 5637 5642 5644 5645 5647 5650 5650 5653 5655 5654 5654 5653 5651 5650 5650 5650 5651 5653 5652 5652 5652 5653 5654 5653 5652
5583 5583 5583 5584 5587 5592 5597 5599 5602 5605 5611 5614 5617 5625 5630 5631 5632 5634 5638 5640 5642 5643 5644 5643 5643 5641 5638 5637 5637 5638 5638 5639 5640 5641 5641 5641 5642 5641
5574 5575 5576 5576 5577 5580 5584 5587 5589 5593 5598 5601 5603 5612 5615 5616 5620 5624 5627 5628 5629 5632 5633 5632 5632 5630 5628 5626 5627 5627 5627 5627 5627 5628 5629 5630 5632 5631
5564 5565 5566 5568 5570 5570 5570 5574 5578 5583 5585 5588 5592 5581 5591 5604 5608 5612 5614 5616 5618 5619 5622 5620 5619 5619 5617 5617 5617 5617 5617 5617 5617 5617 5617 5618 5619 5619
5553 5553 5555 5558 5561 5561 5561 5562 5565 5569 5571 5572 5576 5583 5586 5591 5595 5600 5603 5603 5605 5607 5609 5608 5609 5607 5606 5607 5607 5607 5607 5606 5606 5605 5604 5605 5607 5607
5543 5544 5546 5548 5550 5551 5551 5551 5550 5551 5557 5559 5565 5571 5575 5577 5583 5588 5588 5589 5592 5595 5595 5597 5597 5596 5594 5594 5594 5595 5594 5593 5594 5593 5591 5591 5593 5593
5530 5532 5534 5535 5537 5539 5540 5540 5540 5541 5541 5545 5551 5558 5561 5566 5570 5573 5574 5576 5579 5582 5582 5584 5585 5584 5582 5582 5581 5581 5580 5581 5581 5580 5578 5577 5578 5578
5514 5517 5520 5522 5524 5526 5528 5530 5532 5532 5533 5533 5538 5541 5546 5553 5557 5558 5561 5564 5565 5569 5570 5572 5572 5572 5571 5570 5569 5568 5567 5568 5568 5567 5566 5565 5566 5566
5498 5501 5504 5507 5509 5512 5514 5516 5519 5522 5523 5525 5526 5529 5533 5539 5540 5543 5547 5550 5553 5556 5557 5559 5560 5560 5559 5558 5558 5557 5557 5556 5556 5556 5554 5554 5554 5554
5478 5481 5485 5489 5492 5495 5498 5502 5503 5507 5510 5512 5513 5515 5518 5522 5528 5530 5532 5535 5540 5543 5545 5546 5548 5548 5548 5548 5547 5546 5545 5544 5544 5543 5542 5542 5542 5542
5456 5458 5461 5466 5470 5474 5480 5485 5489 5492 5497 5500 5502 5503 5506 5509 5513 5517 5521 5523 5527 5530 5532 5533 5534 5535 5536 5536 5535 5534 5533 5532 5531 5531 5531 5530 5530 5529
5428 5431 5436 5439 5443 5450 5456 5463 5470 5476 5480 5485 5489 5490 5493 5495 5499 5503 5508 5511 5514 5516 5518 5520 5520 5522 5524 5523 5522 5522 5521 5521 5521 5521 5520 5519 5518 5517
5412 5414 5413 5415 5419 5422 5429 5438 5445 5455 5461 5468 5473 5477 5479 5483 5484 5489 5492 5496 5500 5502 5504 5507 5509 5509 5510 5509 5510 5510 5509 5509 5508 5508 5507 5507 5505 5504
5397 5396 5396 5399 5401 5403 5405 5411 5421 5430 5439 5449 5455 5460 5464 5468 5470 5476 5478 5482 5483 5487 5491 5493 5493 5494 5496 5497 5497 5497 5497 5497 5496 5495 5495 5494 5493 5491
5380 5381 5382 5383 5385 5387 5390 5392 5398 5408 5416 5427 5435 5441 5447 5451 5456 5461 5465 5466 5469 5472 5475 5477 5478 5480 5483 5483 5484 5484 5484 5484 5483 5482 5482 5481 5479 5477
Wind_Speed
54 50 51 44 49 42 41 41 39 37 31 29 32 31 31 29 29 28 26 30 34 34 36 36 32 31 30 29 27 29 34 41 44 45 44 44 44 43
40 42 46 41 45 45 43 42 41 38 34 29 35 35 33 32 32 30 32 31 34 34 36 42 36 32 34 36 35 32 36 35 37 48 49 48 48 47
31 32 35 37 42 37 41 43 43 40 38 34 35 36 34 33 32 31 31 29 29 32 35 37 37 37 39 39 38 39 38 37 36 40 46 49 52 52
36 32 32 33 36 39 43 45 43 42 42 38 42 38 34 36 36 37 35 31 32 36 37 37 37 37 37 41 42 43 42 41 40 40 41 41 40 42
38 36 34 36 33 42 46 45 45 45 46 43 44 40 38 37 38 36 39 36 34 35 38 39 39 38 38 43 46 44 44 43 41 41 41 36 37 37
39 38 37 37 38 42 46 47 46 48 50 49 46 43 40 41 40 38 38 38 38 36 33 34 37 38 40 38 47 49 46 45 45 46 45 38 35 39
42 42 40 43 43 41 47 49 49 47 50 53 49 47 42 42 39 39 41 39 38 36 34 35 36 38 41 46 46 48 47 46 47 48 44 36 36 37
38 36 40 45 47 47 46 50 51 51 53 48 50 48 46 42 43 39 40 42 43 40 39 37 35 39 43 46 48 46 46 45 45 40 35 39 41 38
37 38 44 43 50 49 51 50 51 57 59 51 52 51 51 45 45 42 40 43 43 40 42 40 38 40 42 45 46 52 50 50 51 43 41 38 41 42
29 32 32 39 49 50 49 49 55 56 43 57 53 50 50 46 45 45 45 44 45 42 43 41 40 40 42 46 46 48 52 54 52 40 35 35 36 41
29 29 31 27 41 58 55 54 54 47 48 49 47 52 51 51 48 50 47 46 46 43 44 43 41 41 41 38 36 40 44 49 51 37 41 39 38 40
38 36 33 28 27 35 53 55 50 50 54 47 49 44 47 53 52 53 49 46 46 45 44 44 42 40 41 38 37 38 36 41 44 42 43 49 49 46
39 36 35 33 31 29 32 49 59 58 53 50 44 43 39 52 54 53 49 48 47 47 45 44 43 41 39 40 41 43 47 42 45 46 44 43 49 48
42 40 38 40 38 34 32 34 39 57 62 56 53 42 41 39 49 53 53 50 48 47 46 44 43 43 40 43 45 45 45 48 46 47 49 42 51 54
45 45 43 41 41 40 37 32 37 42 40 58 61 51 44 44 44 43 45 48 46 45 45 44 45 43 43 43 46 48 48 46 47 48 52 45 44 48
49 49 48 48 49 43 40 43 38 38 40 41 46 53 47 45 45 46 47 46 45 46 44 44 45 45 44 45 46 46 45 46 50 51 51 54 51 49
52 52 52 51 50 49 45 42 43 40 38 41 44 52 58 55 48 49 48 50 47 46 45 45 45 45 45 45 45 43 43 45 48 52 46 43 47 55
63 61 60 60 59 57 53 50 43 45 46 40 44 48 55 51 47 51 49 44 44 44 45 45 47 47 45 44 43 43 46 47 47 49 47 45 45 51
73 71 72 71 69 66 64 60 54 48 49 50 44 48 49 53 58 62 54 45 47 48 45 45 48 48 46 44 42 41 43 40 43 41 39 39 41 42
64 76 79 81 82 78 74 68 65 58 55 50 50 45 49 48 52 42 45 44 44 48 49 46 48 49 46 47 45 43 41 40 42 43 42 40 42 44
50 50 51 59 65 76 83 78 71 69 61 58 52 53 52 51 47 50 48 47 52 54 53 46 49 49 49 47 44 46 45 45 44 44 43 44 45 47
47 47 46 49 50 52 56 77 80 75 71 67 61 56 54 56 59 58 53 55 54 52 48 49 50 50 48 47 46 44 45 45 48 46 44 45 46 48
40 46 51 50 49 51 51 51 63 78 74 73 68 63 58 57 54 51 54 53 55 55 50 52 47 49 48 41 40 40 43 46 46 48 48 49 52 52
Wind_Direction
243 252 256 255 237 228 233 240 245 249 253 260 254 257 260 260 262 268 275 268 261 262 265 268 271 262 264 272 277 276 268 262 255 254 258 262 266 270
246 249 243 244 232 224 227 237 244 248 249 254 252 259 262 258 261 266 269 278 264 263 264 261 270 269 273 275 275 277 280 279 266 261 260 262 265 268
259 244 240 240 237 231 232 236 241 248 248 246 248 256 262 265 264 264 270 278 272 269 268 267 266 270 270 274 273 276 275 278 276 268 267 268 271 275
253 256 250 243 240 233 234 238 239 245 247 244 248 250 256 260 262 262 268 273 271 269 270 268 272 276 265 271 273 271 273 275 276 280 276 278 284 286
251 252 251 247 249 241 236 237 239 242 244 243 249 249 253 258 257 262 266 267 275 275 269 273 270 269 268 268 266 266 269 273 274 277 281 288 286 281
257 255 251 252 247 245 240 236 238 242 243 243 243 245 247 252 258 258 262 266 271 275 279 279 277 277 277 279 260 261 267 267 270 274 279 282 277 275
256 252 255 253 251 248 242 239 237 240 244 249 244 246 242 250 258 254 259 265 267 272 276 278 289 276 273 264 264 265 266 268 269 269 279 275 266 270
257 253 258 254 251 247 246 241 239 242 239 239 246 245 245 246 254 258 258 264 267 271 276 278 279 282 277 266 265 263 258 260 265 271 278 271 260 264
259 263 264 261 243 248 250 247 245 245 243 237 243 243 243 241 250 256 260 262 266 270 271 279 278 288 273 272 265 264 258 261 263 262 272 275 265 266
259 260 269 258 238 241 244 246 248 244 249 238 241 246 247 246 250 254 259 263 264 267 271 274 279 287 278 279 266 262 262 257 260 264 266 271 276 266
252 250 261 264 246 235 241 246 250 251 250 249 246 245 243 249 250 254 258 259 262 266 270 272 278 284 281 278 264 264 265 267 259 258 269 277 280 275
250 250 251 253 264 263 245 243 242 251 256 248 236 241 236 243 248 252 255 260 263 265 267 269 274 279 279 274 278 269 276 266 261 260 261 269 275 282
251 254 252 247 252 256 264 251 245 244 248 255 245 237 247 250 247 251 254 258 261 262 265 266 272 277 280 276 277 274 273 272 271 275 259 265 267 275
250 252 253 247 249 253 257 263 263 248 244 248 251 253 258 258 249 246 251 252 258 261 262 267 270 273 279 278 278 281 281 266 271 275 264 252 264 269
247 248 251 251 255 253 252 259 261 263 255 248 249 250 252 255 253 250 252 249 255 260 260 267 269 273 277 283 281 282 281 270 268 272 264 251 259 265
248 251 251 254 256 251 256 255 261 257 258 253 244 242 238 246 247 254 251 247 253 259 260 265 270 272 276 281 279 282 278 269 266 273 271 264 265 269
253 252 253 253 250 252 249 252 257 257 256 252 249 238 239 245 245 246 245 256 251 256 259 262 270 270 273 279 281 277 273 276 264 270 268 269 270 270
257 255 256 256 256 256 254 251 249 258 259 260 253 250 247 236 241 249 265 241 249 255 259 263 265 269 270 276 280 276 277 273 269 266 266 269 274 275
256 255 255 254 254 255 254 254 250 248 256 255 257 252 250 249 249 252 249 246 252 259 259 262 262 266 270 273 275 278 276 282 278 271 271 273 274 276
255 250 248 251 249 248 247 248 249 246 246 252 252 253 251 252 253 246 243 250 253 257 260 265 263 262 269 272 272 273 275 275 276 276 276 275 275 276
256 257 260 258 256 253 246 241 242 243 244 243 246 249 251 249 235 244 245 242 252 253 256 262 266 265 263 271 273 274 271 271 272 271 273 278 279 278
256 257 256 255 256 257 253 248 239 236 238 240 240 244 246 248 247 252 256 255 257 252 258 262 262 260 261 269 269 271 274 272 271 272 273 276 278 278
264 259 256 255 255 253 254 249 246 240 234 234 237 237 242 246 245 243 248 254 250 249 252 254 255 258 260 262 268 271 271 271 274 269 272 277 280 282